Data supplied by UK-AIR on 29/3/2018
All Data GMT hour ending 
Status: R =Ratified P=Provisional,P*=As supplied
,,Weybourne,,,,,,,,,,,,,,,,,,,,,,,
Date,time,"Ozone",status,unit
 
01-01-2017,01:00,46.63286,R,ugm-3
01-01-2017,02:00,46.30024,R,ugm-3
01-01-2017,03:00,50.29164,R,ugm-3
01-01-2017,04:00,48.39573,R,ugm-3
01-01-2017,05:00,47.94669,R,ugm-3
01-01-2017,06:00,49.64304,R,ugm-3
01-01-2017,07:00,49.29379,R,ugm-3
01-01-2017,08:00,48.44562,R,ugm-3
01-01-2017,09:00,47.09852,R,ugm-3
01-01-2017,10:00,45.45207,R,ugm-3
01-01-2017,11:00,60.32003,R,ugm-3
01-01-2017,12:00,88.85854,R,ugm-3
01-01-2017,13:00,90.35532,R,ugm-3
01-01-2017,14:00,91.10371,R,ugm-3
01-01-2017,15:00,91.00392,R,ugm-3
01-01-2017,16:00,90.05596,R,ugm-3
01-01-2017,17:00,89.25768,R,ugm-3
01-01-2017,18:00,85.66542,R,ugm-3
01-01-2017,19:00,83.47015,R,ugm-3
01-01-2017,20:00,83.71962,R,ugm-3
01-01-2017,21:00,85.21639,R,ugm-3
01-01-2017,22:00,84.71747,R,ugm-3
01-01-2017,23:00,83.91919,R,ugm-3
01-01-2017,24:00,82.27273,R,ugm-3
02-01-2017,01:00,78.83015,R,ugm-3
02-01-2017,02:00,81.29151,R,ugm-3
02-01-2017,03:00,78.28133,R,ugm-3
02-01-2017,04:00,75.53725,R,ugm-3
02-01-2017,05:00,75.53725,R,ugm-3
02-01-2017,06:00,78.18155,R,ugm-3
02-01-2017,07:00,78.78026,R,ugm-3
02-01-2017,08:00,77.38327,R,ugm-3
02-01-2017,09:00,75.88649,R,ugm-3
02-01-2017,10:00,75.03832,R,ugm-3
02-01-2017,11:00,75.43746,R,ugm-3
02-01-2017,12:00,69.89939,R,ugm-3
02-01-2017,13:00,70.74757,R,ugm-3
02-01-2017,14:00,62.71487,R,ugm-3
02-01-2017,15:00,58.47401,R,ugm-3
02-01-2017,16:00,58.72347,R,ugm-3
02-01-2017,17:00,59.77122,R,ugm-3
02-01-2017,18:00,60.07057,R,ugm-3
02-01-2017,19:00,58.37423,R,ugm-3
02-01-2017,20:00,54.88175,R,ugm-3
02-01-2017,21:00,47.79702,R,ugm-3
02-01-2017,22:00,43.05723,R,ugm-3
02-01-2017,23:00,39.91400,R,ugm-3
02-01-2017,24:00,38.11787,R,ugm-3
03-01-2017,01:00,37.85178,R,ugm-3
03-01-2017,02:00,40.31314,R,ugm-3
03-01-2017,03:00,40.01379,R,ugm-3
03-01-2017,04:00,40.06368,R,ugm-3
03-01-2017,05:00,40.51271,R,ugm-3
03-01-2017,06:00,43.45637,R,ugm-3
03-01-2017,07:00,42.15916,R,ugm-3
03-01-2017,08:00,41.11142,R,ugm-3
03-01-2017,09:00,46.54970,R,ugm-3
03-01-2017,10:00,48.64519,R,ugm-3
03-01-2017,11:00,50.84046,R,ugm-3
03-01-2017,12:00,53.33508,R,ugm-3
03-01-2017,13:00,52.93594,R,ugm-3
03-01-2017,14:00,53.43487,R,ugm-3
03-01-2017,15:00,53.18541,R,ugm-3
03-01-2017,16:00,51.93809,R,ugm-3
03-01-2017,17:00,53.68433,R,ugm-3
03-01-2017,18:00,56.62799,R,ugm-3
03-01-2017,19:00,56.02928,R,ugm-3
03-01-2017,20:00,53.88390,R,ugm-3
03-01-2017,21:00,54.53250,R,ugm-3
03-01-2017,22:00,57.67573,R,ugm-3
03-01-2017,23:00,59.22240,R,ugm-3
03-01-2017,24:00,58.37423,R,ugm-3
04-01-2017,01:00,57.94182,R,ugm-3
04-01-2017,02:00,61.66713,R,ugm-3
04-01-2017,03:00,61.86670,R,ugm-3
04-01-2017,04:00,62.16606,R,ugm-3
04-01-2017,05:00,65.30928,R,ugm-3
04-01-2017,06:00,66.20735,R,ugm-3
04-01-2017,07:00,78.63058,R,ugm-3
04-01-2017,08:00,83.86929,R,ugm-3
04-01-2017,09:00,86.66327,R,ugm-3
04-01-2017,10:00,83.71962,R,ugm-3
04-01-2017,11:00,82.02327,R,ugm-3
04-01-2017,12:00,81.42456,R,ugm-3
04-01-2017,13:00,82.12306,R,ugm-3
04-01-2017,14:00,82.22284,R,ugm-3
04-01-2017,15:00,83.02112,R,ugm-3
04-01-2017,16:00,83.07101,R,ugm-3
04-01-2017,17:00,83.91919,R,ugm-3
04-01-2017,18:00,84.46800,R,ugm-3
04-01-2017,19:00,84.76736,R,ugm-3
04-01-2017,20:00,84.61768,R,ugm-3
04-01-2017,21:00,85.21639,R,ugm-3
04-01-2017,22:00,84.81725,R,ugm-3
04-01-2017,23:00,83.32048,R,ugm-3
04-01-2017,24:00,83.22069,R,ugm-3
05-01-2017,01:00,83.08764,R,ugm-3
05-01-2017,02:00,80.62628,R,ugm-3
05-01-2017,03:00,83.12091,R,ugm-3
05-01-2017,04:00,82.27273,R,ugm-3
05-01-2017,05:00,80.12736,R,ugm-3
05-01-2017,06:00,82.77166,R,ugm-3
05-01-2017,07:00,80.77596,R,ugm-3
05-01-2017,08:00,80.57639,R,ugm-3
05-01-2017,09:00,81.37467,R,ugm-3
05-01-2017,10:00,70.44821,R,ugm-3
05-01-2017,11:00,64.86025,R,ugm-3
05-01-2017,12:00,75.88649,R,ugm-3
05-01-2017,13:00,79.82800,R,ugm-3
05-01-2017,14:00,78.48090,R,ugm-3
05-01-2017,15:00,78.08176,R,ugm-3
05-01-2017,16:00,73.09251,R,ugm-3
05-01-2017,17:00,71.39617,R,ugm-3
05-01-2017,18:00,70.94714,R,ugm-3
05-01-2017,19:00,69.15101,R,ugm-3
05-01-2017,20:00,69.50025,R,ugm-3
05-01-2017,21:00,71.24649,R,ugm-3
05-01-2017,22:00,74.58929,R,ugm-3
05-01-2017,23:00,63.76262,R,ugm-3
05-01-2017,24:00,51.38928,R,ugm-3
06-01-2017,01:00,46.03415,R,ugm-3
06-01-2017,02:00,33.39471,R,ugm-3
06-01-2017,03:00,29.23701,R,ugm-3
06-01-2017,04:00,25.84432,R,ugm-3
06-01-2017,05:00,24.79657,R,ugm-3
06-01-2017,06:00,24.84647,R,ugm-3
06-01-2017,07:00,27.88991,R,ugm-3
06-01-2017,08:00,25.94410,R,ugm-3
06-01-2017,09:00,26.04389,R,ugm-3
06-01-2017,10:00,31.38238,R,ugm-3
06-01-2017,11:00,34.37593,R,ugm-3
06-01-2017,12:00,35.82282,R,ugm-3
06-01-2017,13:00,36.22196,R,ugm-3
06-01-2017,14:00,33.97679,R,ugm-3
06-01-2017,15:00,35.27400,R,ugm-3
06-01-2017,16:00,35.42368,R,ugm-3
06-01-2017,17:00,32.67959,R,ugm-3
06-01-2017,18:00,28.33894,R,ugm-3
06-01-2017,19:00,32.28045,R,ugm-3
06-01-2017,20:00,35.72303,R,ugm-3
06-01-2017,21:00,41.26110,R,ugm-3
06-01-2017,22:00,40.46282,R,ugm-3
06-01-2017,23:00,39.21551,R,ugm-3
06-01-2017,24:00,40.36303,R,ugm-3
07-01-2017,01:00,40.91185,R,ugm-3
07-01-2017,02:00,40.57923,R,ugm-3
07-01-2017,03:00,38.76647,R,ugm-3
07-01-2017,04:00,35.47357,R,ugm-3
07-01-2017,05:00,32.38023,R,ugm-3
07-01-2017,06:00,29.43658,R,ugm-3
07-01-2017,07:00,24.94625,R,ugm-3
07-01-2017,08:00,20.70539,R,ugm-3
07-01-2017,09:00,18.56001,R,ugm-3
07-01-2017,10:00,19.95700,R,ugm-3
07-01-2017,11:00,19.30840,R,ugm-3
07-01-2017,12:00,19.00904,R,ugm-3
07-01-2017,13:00,19.35829,R,ugm-3
07-01-2017,14:00,28.78797,R,ugm-3
07-01-2017,15:00,38.21766,R,ugm-3
07-01-2017,16:00,38.36733,R,ugm-3
07-01-2017,17:00,35.62325,R,ugm-3
07-01-2017,18:00,32.03099,R,ugm-3
07-01-2017,19:00,25.29550,R,ugm-3
07-01-2017,20:00,21.60345,R,ugm-3
07-01-2017,21:00,22.25206,R,ugm-3
07-01-2017,22:00,18.75958,R,ugm-3
07-01-2017,23:00,20.90496,R,ugm-3
07-01-2017,24:00,27.54066,R,ugm-3
08-01-2017,01:00,27.27457,R,ugm-3
08-01-2017,02:00,16.03212,R,ugm-3
08-01-2017,03:00,9.87872,R,ugm-3
08-01-2017,04:00,10.77678,R,ugm-3
08-01-2017,05:00,21.10453,R,ugm-3
08-01-2017,06:00,23.99829,R,ugm-3
08-01-2017,07:00,25.09593,R,ugm-3
08-01-2017,08:00,33.52776,R,ugm-3
08-01-2017,09:00,38.86626,R,ugm-3
08-01-2017,10:00,38.66669,R,ugm-3
08-01-2017,11:00,35.32389,R,ugm-3
08-01-2017,12:00,38.51701,R,ugm-3
08-01-2017,13:00,50.49121,R,ugm-3
08-01-2017,14:00,52.18756,R,ugm-3
08-01-2017,15:00,46.59960,R,ugm-3
08-01-2017,16:00,40.81207,R,ugm-3
08-01-2017,17:00,37.41938,R,ugm-3
08-01-2017,18:00,34.47572,R,ugm-3
08-01-2017,19:00,28.23916,R,ugm-3
08-01-2017,20:00,24.29765,R,ugm-3
08-01-2017,21:00,25.64475,R,ugm-3
08-01-2017,22:00,30.53421,R,ugm-3
08-01-2017,23:00,33.42798,R,ugm-3
08-01-2017,24:00,38.11787,R,ugm-3
09-01-2017,01:00,32.59643,R,ugm-3
09-01-2017,02:00,35.58998,R,ugm-3
09-01-2017,03:00,33.57765,R,ugm-3
09-01-2017,04:00,32.67959,R,ugm-3
09-01-2017,05:00,33.42798,R,ugm-3
09-01-2017,06:00,29.28690,R,ugm-3
09-01-2017,07:00,39.96389,R,ugm-3
09-01-2017,08:00,41.26110,R,ugm-3
09-01-2017,09:00,49.59315,R,ugm-3
09-01-2017,10:00,53.63444,R,ugm-3
09-01-2017,11:00,56.27874,R,ugm-3
09-01-2017,12:00,58.77337,R,ugm-3
09-01-2017,13:00,62.21595,R,ugm-3
09-01-2017,14:00,63.31358,R,ugm-3
09-01-2017,15:00,61.01853,R,ugm-3
09-01-2017,16:00,60.02068,R,ugm-3
09-01-2017,17:00,58.47401,R,ugm-3
09-01-2017,18:00,61.76692,R,ugm-3
09-01-2017,19:00,69.25079,R,ugm-3
09-01-2017,20:00,58.37423,R,ugm-3
09-01-2017,21:00,56.82756,R,ugm-3
09-01-2017,22:00,51.58885,R,ugm-3
09-01-2017,23:00,53.18541,R,ugm-3
09-01-2017,24:00,51.43917,R,ugm-3
10-01-2017,01:00,47.56418,R,ugm-3
10-01-2017,02:00,46.43329,R,ugm-3
10-01-2017,03:00,51.13981,R,ugm-3
10-01-2017,04:00,52.18756,R,ugm-3
10-01-2017,05:00,56.57810,R,ugm-3
10-01-2017,06:00,58.82326,R,ugm-3
10-01-2017,07:00,56.57810,R,ugm-3
10-01-2017,08:00,56.12906,R,ugm-3
10-01-2017,09:00,55.13121,R,ugm-3
10-01-2017,10:00,54.73207,R,ugm-3
10-01-2017,11:00,55.87960,R,ugm-3
10-01-2017,12:00,55.53035,R,ugm-3
10-01-2017,13:00,55.48046,R,ugm-3
10-01-2017,14:00,54.73207,R,ugm-3
10-01-2017,15:00,53.48476,R,ugm-3
10-01-2017,16:00,51.38928,R,ugm-3
10-01-2017,17:00,49.19401,R,ugm-3
10-01-2017,18:00,48.99444,R,ugm-3
10-01-2017,19:00,45.25250,R,ugm-3
10-01-2017,20:00,44.55400,R,ugm-3
10-01-2017,21:00,40.61250,R,ugm-3
10-01-2017,22:00,39.81422,R,ugm-3
10-01-2017,23:00,43.90540,R,ugm-3
10-01-2017,24:00,42.35873,R,ugm-3
11-01-2017,01:00,42.30884,R,ugm-3
11-01-2017,02:00,50.49121,R,ugm-3
11-01-2017,03:00,54.18326,R,ugm-3
11-01-2017,04:00,56.07917,R,ugm-3
11-01-2017,05:00,55.18111,R,ugm-3
11-01-2017,06:00,57.17681,R,ugm-3
11-01-2017,07:00,58.47401,R,ugm-3
11-01-2017,08:00,70.64778,R,ugm-3
11-01-2017,09:00,83.47015,R,ugm-3
11-01-2017,10:00,80.62628,R,ugm-3
11-01-2017,11:00,78.23144,R,ugm-3
11-01-2017,12:00,84.46800,R,ugm-3
11-01-2017,13:00,83.02112,R,ugm-3
11-01-2017,14:00,81.32478,R,ugm-3
11-01-2017,15:00,83.22069,R,ugm-3
11-01-2017,16:00,82.97123,R,ugm-3
11-01-2017,17:00,79.72822,R,ugm-3
11-01-2017,18:00,73.44176,R,ugm-3
11-01-2017,19:00,70.44821,R,ugm-3
11-01-2017,20:00,69.69982,R,ugm-3
11-01-2017,21:00,70.19875,R,ugm-3
11-01-2017,22:00,69.94929,R,ugm-3
11-01-2017,23:00,70.54800,R,ugm-3
11-01-2017,24:00,69.10111,R,ugm-3
12-01-2017,01:00,70.44821,R,ugm-3
12-01-2017,02:00,66.45681,R,ugm-3
12-01-2017,03:00,64.66068,R,ugm-3
12-01-2017,04:00,65.55875,R,ugm-3
12-01-2017,05:00,65.55875,R,ugm-3
12-01-2017,06:00,64.86025,R,ugm-3
12-01-2017,07:00,64.81036,R,ugm-3
12-01-2017,08:00,63.46326,R,ugm-3
12-01-2017,09:00,61.76692,R,ugm-3
12-01-2017,10:00,59.87100,R,ugm-3
12-01-2017,11:00,57.32648,R,ugm-3
12-01-2017,12:00,52.88605,R,ugm-3
12-01-2017,13:00,53.08562,R,ugm-3
12-01-2017,14:00,51.28949,R,ugm-3
12-01-2017,15:00,55.38068,R,ugm-3
12-01-2017,16:00,55.48046,R,ugm-3
12-01-2017,17:00,59.12261,R,ugm-3
12-01-2017,18:00,72.09466,R,ugm-3
12-01-2017,19:00,70.69767,R,ugm-3
12-01-2017,20:00,59.27229,R,ugm-3
12-01-2017,21:00,66.65638,R,ugm-3
12-01-2017,22:00,70.74757,R,ugm-3
12-01-2017,23:00,74.68907,R,ugm-3
12-01-2017,24:00,72.44391,R,ugm-3
13-01-2017,01:00,69.11774,R,ugm-3
13-01-2017,02:00,68.18642,R,ugm-3
13-01-2017,03:00,70.14886,R,ugm-3
13-01-2017,04:00,70.24864,R,ugm-3
13-01-2017,05:00,71.99488,R,ugm-3
13-01-2017,06:00,67.80391,R,ugm-3
13-01-2017,07:00,68.50240,R,ugm-3
13-01-2017,08:00,68.95144,R,ugm-3
13-01-2017,09:00,70.69767,R,ugm-3
13-01-2017,10:00,67.35488,R,ugm-3
13-01-2017,11:00,65.75832,R,ugm-3
13-01-2017,12:00,77.89882,R,ugm-3
13-01-2017,13:00,78.16492,R,ugm-3
13-01-2017,14:00,78.13166,R,ugm-3
13-01-2017,15:00,77.88219,R,ugm-3
13-01-2017,16:00,77.18370,R,ugm-3
13-01-2017,17:00,75.33768,R,ugm-3
13-01-2017,18:00,76.23574,R,ugm-3
13-01-2017,19:00,73.84090,R,ugm-3
13-01-2017,20:00,78.08176,R,ugm-3
13-01-2017,21:00,74.58929,R,ugm-3
13-01-2017,22:00,76.53510,R,ugm-3
13-01-2017,23:00,70.69767,R,ugm-3
13-01-2017,24:00,70.39832,R,ugm-3
14-01-2017,01:00,69.84950,R,ugm-3
14-01-2017,02:00,72.57696,R,ugm-3
14-01-2017,03:00,65.30928,R,ugm-3
14-01-2017,04:00,59.07272,R,ugm-3
14-01-2017,05:00,58.92304,R,ugm-3
14-01-2017,06:00,57.07702,R,ugm-3
14-01-2017,07:00,57.92519,R,ugm-3
14-01-2017,08:00,64.01208,R,ugm-3
14-01-2017,09:00,68.75187,R,ugm-3
14-01-2017,10:00,77.48305,R,ugm-3
14-01-2017,11:00,79.02972,R,ugm-3
14-01-2017,12:00,78.97983,R,ugm-3
14-01-2017,13:00,76.43531,R,ugm-3
14-01-2017,14:00,76.43531,R,ugm-3
14-01-2017,15:00,77.08391,R,ugm-3
14-01-2017,16:00,73.79101,R,ugm-3
14-01-2017,17:00,70.29853,R,ugm-3
14-01-2017,18:00,69.25079,R,ugm-3
14-01-2017,19:00,69.00133,R,ugm-3
14-01-2017,20:00,73.79101,R,ugm-3
14-01-2017,21:00,69.35058,R,ugm-3
14-01-2017,22:00,75.03832,R,ugm-3
14-01-2017,23:00,75.18800,R,ugm-3
14-01-2017,24:00,62.61509,R,ugm-3
15-01-2017,01:00,55.28089,R,ugm-3
15-01-2017,02:00,57.27659,R,ugm-3
15-01-2017,03:00,58.87315,R,ugm-3
15-01-2017,04:00,53.78412,R,ugm-3
15-01-2017,05:00,47.74712,R,ugm-3
15-01-2017,06:00,41.21121,R,ugm-3
15-01-2017,07:00,41.11142,R,ugm-3
15-01-2017,08:00,51.83831,R,ugm-3
15-01-2017,09:00,54.38283,R,ugm-3
15-01-2017,10:00,58.97294,R,ugm-3
15-01-2017,11:00,58.32433,R,ugm-3
15-01-2017,12:00,55.48046,R,ugm-3
15-01-2017,13:00,50.09207,R,ugm-3
15-01-2017,14:00,46.49981,R,ugm-3
15-01-2017,15:00,42.90755,R,ugm-3
15-01-2017,16:00,40.06368,R,ugm-3
15-01-2017,17:00,39.26540,R,ugm-3
15-01-2017,18:00,36.67099,R,ugm-3
15-01-2017,19:00,35.77292,R,ugm-3
15-01-2017,20:00,42.10927,R,ugm-3
15-01-2017,21:00,52.53680,R,ugm-3
15-01-2017,22:00,55.82971,R,ugm-3
15-01-2017,23:00,54.98154,R,ugm-3
15-01-2017,24:00,65.25939,R,ugm-3
16-01-2017,01:00,65.39244,R,ugm-3
16-01-2017,02:00,67.12204,R,ugm-3
16-01-2017,03:00,68.20305,R,ugm-3
16-01-2017,04:00,66.60649,R,ugm-3
16-01-2017,05:00,72.49380,R,ugm-3
16-01-2017,06:00,68.85165,R,ugm-3
16-01-2017,07:00,63.16391,R,ugm-3
16-01-2017,08:00,62.66498,R,ugm-3
16-01-2017,09:00,60.96864,R,ugm-3
16-01-2017,10:00,55.58025,R,ugm-3
16-01-2017,11:00,62.56520,R,ugm-3
16-01-2017,12:00,66.00778,R,ugm-3
16-01-2017,13:00,71.44606,R,ugm-3
16-01-2017,14:00,71.09681,R,ugm-3
16-01-2017,15:00,70.84735,R,ugm-3
16-01-2017,16:00,68.05337,R,ugm-3
16-01-2017,17:00,63.76262,R,ugm-3
16-01-2017,18:00,67.25509,R,ugm-3
16-01-2017,19:00,71.34628,R,ugm-3
16-01-2017,20:00,67.75402,R,ugm-3
16-01-2017,21:00,66.80606,R,ugm-3
16-01-2017,22:00,70.64778,R,ugm-3
16-01-2017,23:00,69.74972,R,ugm-3
16-01-2017,24:00,65.75832,R,ugm-3
17-01-2017,01:00,62.86455,R,ugm-3
17-01-2017,02:00,56.07917,R,ugm-3
17-01-2017,03:00,54.53250,R,ugm-3
17-01-2017,04:00,52.88605,R,ugm-3
17-01-2017,05:00,47.74712,R,ugm-3
17-01-2017,06:00,43.80562,R,ugm-3
17-01-2017,07:00,40.51271,R,ugm-3
17-01-2017,08:00,35.42368,R,ugm-3
17-01-2017,09:00,34.77507,R,ugm-3
17-01-2017,10:00,36.22196,R,ugm-3
17-01-2017,11:00,37.86841,R,ugm-3
17-01-2017,12:00,36.47142,R,ugm-3
17-01-2017,13:00,35.47357,R,ugm-3
17-01-2017,14:00,38.26755,R,ugm-3
17-01-2017,15:00,40.41293,R,ugm-3
17-01-2017,16:00,36.87056,R,ugm-3
17-01-2017,17:00,25.24561,R,ugm-3
17-01-2017,18:00,13.52087,R,ugm-3
17-01-2017,19:00,17.46238,R,ugm-3
17-01-2017,20:00,20.20646,R,ugm-3
17-01-2017,21:00,23.64905,R,ugm-3
17-01-2017,22:00,26.29335,R,ugm-3
17-01-2017,23:00,22.80087,R,ugm-3
17-01-2017,24:00,29.58625,R,ugm-3
18-01-2017,01:00,30.93335,R,ugm-3
18-01-2017,02:00,25.27887,R,ugm-3
18-01-2017,03:00,23.05034,R,ugm-3
18-01-2017,04:00,22.60130,R,ugm-3
18-01-2017,05:00,27.84002,R,ugm-3
18-01-2017,06:00,42.25895,R,ugm-3
18-01-2017,07:00,34.32604,R,ugm-3
18-01-2017,08:00,22.75098,R,ugm-3
18-01-2017,09:00,20.70539,R,ugm-3
18-01-2017,10:00,23.74883,R,ugm-3
18-01-2017,11:00,30.33464,R,ugm-3
18-01-2017,12:00,33.57765,R,ugm-3
18-01-2017,13:00,36.02239,R,ugm-3
18-01-2017,14:00,36.47142,R,ugm-3
18-01-2017,15:00,34.52561,R,ugm-3
18-01-2017,16:00,34.47572,R,ugm-3
18-01-2017,17:00,32.43013,R,ugm-3
18-01-2017,18:00,24.29765,R,ugm-3
18-01-2017,19:00,28.08948,R,ugm-3
18-01-2017,20:00,33.22841,R,ugm-3
18-01-2017,21:00,32.82927,R,ugm-3
18-01-2017,22:00,29.48647,R,ugm-3
18-01-2017,23:00,27.44088,R,ugm-3
18-01-2017,24:00,21.75313,R,ugm-3
19-01-2017,01:00,13.43771,R,ugm-3
19-01-2017,02:00,10.57721,R,ugm-3
19-01-2017,03:00,9.37979,R,ugm-3
19-01-2017,04:00,8.58151,R,ugm-3
19-01-2017,05:00,8.68130,R,ugm-3
19-01-2017,06:00,9.42968,R,ugm-3
19-01-2017,07:00,7.83312,R,ugm-3
19-01-2017,08:00,7.33420,R,ugm-3
19-01-2017,09:00,2.99355,R,ugm-3
19-01-2017,10:00,6.33635,R,ugm-3
19-01-2017,11:00,5.33850,R,ugm-3
19-01-2017,12:00,5.38839,R,ugm-3
19-01-2017,13:00,4.14108,R,ugm-3
19-01-2017,14:00,4.24086,R,ugm-3
19-01-2017,15:00,3.94151,R,ugm-3
19-01-2017,16:00,2.54452,R,ugm-3
19-01-2017,17:00,1.44688,R,ugm-3
19-01-2017,18:00,1.29721,R,ugm-3
19-01-2017,19:00,1.29721,R,ugm-3
19-01-2017,20:00,9.08044,R,ugm-3
19-01-2017,21:00,11.07614,R,ugm-3
19-01-2017,22:00,15.26711,R,ugm-3
19-01-2017,23:00,23.20001,R,ugm-3
19-01-2017,24:00,25.44518,R,ugm-3
20-01-2017,01:00,31.86468,R,ugm-3
20-01-2017,02:00,33.99342,R,ugm-3
20-01-2017,03:00,34.97464,R,ugm-3
20-01-2017,04:00,26.94195,R,ugm-3
20-01-2017,05:00,24.99614,R,ugm-3
20-01-2017,06:00,23.94840,R,ugm-3
20-01-2017,07:00,24.09808,R,ugm-3
20-01-2017,08:00,24.69679,R,ugm-3
20-01-2017,09:00,32.23056,R,ugm-3
20-01-2017,10:00,31.73163,R,ugm-3
20-01-2017,11:00,34.87486,R,ugm-3
20-01-2017,12:00,43.80562,R,ugm-3
20-01-2017,13:00,53.13551,R,ugm-3
20-01-2017,14:00,59.42197,R,ugm-3
20-01-2017,15:00,61.41767,R,ugm-3
20-01-2017,16:00,51.18971,R,ugm-3
20-01-2017,17:00,49.64304,R,ugm-3
20-01-2017,18:00,47.29809,R,ugm-3
20-01-2017,19:00,53.28519,R,ugm-3
20-01-2017,20:00,58.97294,R,ugm-3
20-01-2017,21:00,60.12046,R,ugm-3
20-01-2017,22:00,61.76692,R,ugm-3
20-01-2017,23:00,51.43917,R,ugm-3
20-01-2017,24:00,48.84476,R,ugm-3
21-01-2017,01:00,48.69508,R,ugm-3
21-01-2017,02:00,50.22512,R,ugm-3
21-01-2017,03:00,49.34368,R,ugm-3
21-01-2017,04:00,52.53680,R,ugm-3
21-01-2017,05:00,51.63874,R,ugm-3
21-01-2017,06:00,55.13121,R,ugm-3
21-01-2017,07:00,54.83186,R,ugm-3
21-01-2017,08:00,56.47831,R,ugm-3
21-01-2017,09:00,53.18541,R,ugm-3
21-01-2017,10:00,51.93809,R,ugm-3
21-01-2017,11:00,53.78412,R,ugm-3
21-01-2017,12:00,47.09852,R,ugm-3
21-01-2017,13:00,54.58240,R,ugm-3
21-01-2017,14:00,58.42412,R,ugm-3
21-01-2017,15:00,60.66928,R,ugm-3
21-01-2017,16:00,56.37853,R,ugm-3
21-01-2017,17:00,50.59100,R,ugm-3
21-01-2017,18:00,49.29379,R,ugm-3
21-01-2017,19:00,48.74497,R,ugm-3
21-01-2017,20:00,46.99874,R,ugm-3
21-01-2017,21:00,41.41078,R,ugm-3
21-01-2017,22:00,29.98539,R,ugm-3
21-01-2017,23:00,19.10883,R,ugm-3
21-01-2017,24:00,14.41893,R,ugm-3
22-01-2017,01:00,11.17592,R,ugm-3
22-01-2017,02:00,9.44631,R,ugm-3
22-01-2017,03:00,11.72474,R,ugm-3
22-01-2017,04:00,6.68560,R,ugm-3
22-01-2017,05:00,5.13893,R,ugm-3
22-01-2017,06:00,8.08259,R,ugm-3
22-01-2017,07:00,14.86797,R,ugm-3
22-01-2017,08:00,19.20861,R,ugm-3
22-01-2017,09:00,27.84002,R,ugm-3
22-01-2017,10:00,29.23701,R,ugm-3
22-01-2017,11:00,36.72088,R,ugm-3
22-01-2017,12:00,41.31099,R,ugm-3
22-01-2017,13:00,51.28949,R,ugm-3
22-01-2017,14:00,51.53895,R,ugm-3
22-01-2017,15:00,47.59745,R,ugm-3
22-01-2017,16:00,37.91830,R,ugm-3
22-01-2017,17:00,37.96819,R,ugm-3
22-01-2017,18:00,35.12432,R,ugm-3
22-01-2017,19:00,33.97679,R,ugm-3
22-01-2017,20:00,37.86841,R,ugm-3
22-01-2017,21:00,34.82497,R,ugm-3
22-01-2017,22:00,30.13507,R,ugm-3
22-01-2017,23:00,25.74453,R,ugm-3
22-01-2017,24:00,18.95915,R,ugm-3
23-01-2017,01:00,19.95700,R,ugm-3
23-01-2017,02:00,19.55786,R,ugm-3
23-01-2017,03:00,16.51442,R,ugm-3
23-01-2017,04:00,14.81807,R,ugm-3
23-01-2017,05:00,13.96990,R,ugm-3
23-01-2017,06:00,10.52732,R,ugm-3
23-01-2017,07:00,7.03484,R,ugm-3
23-01-2017,08:00,5.38839,R,ugm-3
23-01-2017,09:00,6.83527,R,ugm-3
23-01-2017,10:00,13.27141,R,ugm-3
23-01-2017,11:00,21.50367,R,ugm-3
23-01-2017,12:00,23.49937,R,ugm-3
23-01-2017,13:00,30.48432,R,ugm-3
23-01-2017,14:00,34.12647,R,ugm-3
23-01-2017,15:00,43.75572,R,ugm-3
23-01-2017,16:00,45.85121,R,ugm-3
23-01-2017,17:00,44.60390,R,ugm-3
23-01-2017,18:00,41.66024,R,ugm-3
23-01-2017,19:00,32.82927,R,ugm-3
23-01-2017,20:00,22.75098,R,ugm-3
23-01-2017,21:00,9.08044,R,ugm-3
23-01-2017,22:00,3.99140,R,ugm-3
23-01-2017,23:00,8.18237,R,ugm-3
23-01-2017,24:00,3.24301,R,ugm-3
24-01-2017,01:00,2.26179,R,ugm-3
24-01-2017,02:00,1.72961,R,ugm-3
24-01-2017,03:00,1.59656,R,ugm-3
24-01-2017,04:00,1.39699,R,ugm-3
24-01-2017,05:00,1.64645,R,ugm-3
24-01-2017,06:00,1.54667,R,ugm-3
24-01-2017,07:00,3.29291,R,ugm-3
24-01-2017,08:00,3.49248,R,ugm-3
24-01-2017,09:00,8.18237,R,ugm-3
24-01-2017,10:00,17.46238,R,ugm-3
24-01-2017,11:00,17.86152,R,ugm-3
24-01-2017,12:00,32.33034,R,ugm-3
24-01-2017,13:00,36.52131,R,ugm-3
24-01-2017,14:00,46.40003,R,ugm-3
24-01-2017,15:00,37.91830,R,ugm-3
24-01-2017,16:00,37.21981,R,ugm-3
24-01-2017,17:00,23.15012,R,ugm-3
24-01-2017,18:00,17.66195,R,ugm-3
24-01-2017,19:00,18.51012,R,ugm-3
24-01-2017,20:00,12.67270,R,ugm-3
24-01-2017,21:00,14.21936,R,ugm-3
24-01-2017,22:00,7.88302,R,ugm-3
24-01-2017,23:00,2.49463,R,ugm-3
24-01-2017,24:00,2.14538,R,ugm-3
25-01-2017,01:00,1.92918,R,ugm-3
25-01-2017,02:00,3.72531,R,ugm-3
25-01-2017,03:00,4.49033,R,ugm-3
25-01-2017,04:00,4.93936,R,ugm-3
25-01-2017,05:00,2.49463,R,ugm-3
25-01-2017,06:00,2.09549,R,ugm-3
25-01-2017,07:00,2.34495,R,ugm-3
25-01-2017,08:00,3.64215,R,ugm-3
25-01-2017,09:00,14.76818,R,ugm-3
25-01-2017,10:00,24.44733,R,ugm-3
25-01-2017,11:00,25.79442,R,ugm-3
25-01-2017,12:00,33.87701,R,ugm-3
25-01-2017,13:00,33.17851,R,ugm-3
25-01-2017,14:00,33.77722,R,ugm-3
25-01-2017,15:00,35.22411,R,ugm-3
25-01-2017,16:00,30.28475,R,ugm-3
25-01-2017,17:00,31.18281,R,ugm-3
25-01-2017,18:00,38.56690,R,ugm-3
25-01-2017,19:00,48.79487,R,ugm-3
25-01-2017,20:00,45.25250,R,ugm-3
25-01-2017,21:00,39.46497,R,ugm-3
25-01-2017,22:00,33.77722,R,ugm-3
25-01-2017,23:00,25.84432,R,ugm-3
25-01-2017,24:00,21.45378,R,ugm-3
26-01-2017,01:00,23.08360,R,ugm-3
26-01-2017,02:00,28.13937,R,ugm-3
26-01-2017,03:00,23.39958,R,ugm-3
26-01-2017,04:00,16.61420,R,ugm-3
26-01-2017,05:00,15.91571,R,ugm-3
26-01-2017,06:00,11.87442,R,ugm-3
26-01-2017,07:00,17.41248,R,ugm-3
26-01-2017,08:00,21.80302,R,ugm-3
26-01-2017,09:00,22.25206,R,ugm-3
26-01-2017,10:00,36.42153,R,ugm-3
26-01-2017,11:00,40.61250,R,ugm-3
26-01-2017,12:00,37.07013,R,ugm-3
26-01-2017,13:00,33.32819,R,ugm-3
26-01-2017,14:00,35.07443,R,ugm-3
26-01-2017,15:00,31.98109,R,ugm-3
26-01-2017,16:00,30.23486,R,ugm-3
26-01-2017,17:00,27.88991,R,ugm-3
26-01-2017,18:00,25.79442,R,ugm-3
26-01-2017,19:00,26.34324,R,ugm-3
26-01-2017,20:00,28.33894,R,ugm-3
26-01-2017,21:00,26.99184,R,ugm-3
26-01-2017,22:00,24.74668,R,ugm-3
26-01-2017,23:00,22.45163,R,ugm-3
26-01-2017,24:00,21.75313,R,ugm-3
27-01-2017,01:00,21.22094,R,ugm-3
27-01-2017,02:00,21.48704,R,ugm-3
27-01-2017,03:00,20.95485,R,ugm-3
27-01-2017,04:00,17.51227,R,ugm-3
27-01-2017,05:00,21.75313,R,ugm-3
27-01-2017,06:00,23.64905,R,ugm-3
27-01-2017,07:00,21.50367,R,ugm-3
27-01-2017,08:00,23.00044,R,ugm-3
27-01-2017,09:00,23.64905,R,ugm-3
27-01-2017,10:00,24.09808,R,ugm-3
27-01-2017,11:00,27.39098,R,ugm-3
27-01-2017,12:00,45.05293,R,ugm-3
27-01-2017,13:00,49.39358,R,ugm-3
27-01-2017,14:00,40.46282,R,ugm-3
27-01-2017,15:00,38.01809,R,ugm-3
27-01-2017,16:00,36.22196,R,ugm-3
27-01-2017,17:00,30.83357,R,ugm-3
27-01-2017,18:00,24.99614,R,ugm-3
27-01-2017,19:00,26.84217,R,ugm-3
27-01-2017,20:00,27.49077,R,ugm-3
27-01-2017,21:00,29.03744,R,ugm-3
27-01-2017,22:00,28.58840,R,ugm-3
27-01-2017,23:00,28.98754,R,ugm-3
27-01-2017,24:00,29.23701,R,ugm-3
28-01-2017,01:00,31.66511,R,ugm-3
28-01-2017,02:00,31.46554,R,ugm-3
28-01-2017,03:00,31.23271,R,ugm-3
28-01-2017,04:00,31.93120,R,ugm-3
28-01-2017,05:00,33.12862,R,ugm-3
28-01-2017,06:00,33.02884,R,ugm-3
28-01-2017,07:00,37.86841,R,ugm-3
28-01-2017,08:00,38.16776,R,ugm-3
28-01-2017,09:00,43.95529,R,ugm-3
28-01-2017,10:00,50.14196,R,ugm-3
28-01-2017,11:00,56.42842,R,ugm-3
28-01-2017,12:00,57.42627,R,ugm-3
28-01-2017,13:00,57.77552,R,ugm-3
28-01-2017,14:00,69.69982,R,ugm-3
28-01-2017,15:00,75.73682,R,ugm-3
28-01-2017,16:00,72.04477,R,ugm-3
28-01-2017,17:00,68.25294,R,ugm-3
28-01-2017,18:00,64.46111,R,ugm-3
28-01-2017,19:00,56.22885,R,ugm-3
28-01-2017,20:00,57.27659,R,ugm-3
28-01-2017,21:00,59.72132,R,ugm-3
28-01-2017,22:00,53.48476,R,ugm-3
28-01-2017,23:00,47.64734,R,ugm-3
28-01-2017,24:00,48.19616,R,ugm-3
29-01-2017,01:00,52.55343,R,ugm-3
29-01-2017,02:00,46.56633,R,ugm-3
29-01-2017,03:00,44.05508,R,ugm-3
29-01-2017,04:00,66.40692,R,ugm-3
29-01-2017,05:00,56.62799,R,ugm-3
29-01-2017,06:00,58.67358,R,ugm-3
29-01-2017,07:00,60.76907,R,ugm-3
29-01-2017,08:00,54.73207,R,ugm-3
29-01-2017,09:00,52.73637,R,ugm-3
29-01-2017,10:00,53.53465,R,ugm-3
29-01-2017,11:00,56.97724,R,ugm-3
29-01-2017,12:00,64.21165,R,ugm-3
29-01-2017,13:00,66.05767,R,ugm-3
29-01-2017,14:00,58.67358,R,ugm-3
29-01-2017,15:00,58.47401,R,ugm-3
29-01-2017,16:00,51.13981,R,ugm-3
29-01-2017,17:00,47.69723,R,ugm-3
29-01-2017,18:00,49.74282,R,ugm-3
29-01-2017,19:00,57.02713,R,ugm-3
29-01-2017,20:00,59.07272,R,ugm-3
29-01-2017,21:00,61.26799,R,ugm-3
29-01-2017,22:00,58.72347,R,ugm-3
29-01-2017,23:00,56.02928,R,ugm-3
29-01-2017,24:00,53.28519,R,ugm-3
30-01-2017,01:00,49.49336,R,ugm-3
30-01-2017,02:00,49.89250,R,ugm-3
30-01-2017,03:00,41.66024,R,ugm-3
30-01-2017,04:00,45.75142,R,ugm-3
30-01-2017,05:00,49.14411,R,ugm-3
30-01-2017,06:00,46.44992,R,ugm-3